This is the latest recevied weather packets stored in our database for station/object DC7RY. If no packets are shown the sender has not sent any weather packets the latest 10 day(s).
| Time | Temp. | Humidity | Pressure | Rain* | Wind** | Luminosity | Snow |
|---|---|---|---|---|---|---|---|
| 1777204226 | 13.33° C | 42% | 1017.2 hPa | 0 mm | - | 124 W/m² | - |
| 1777203618 | 13.33° C | 44% | 1017.4 hPa | 0 mm | - | 105 W/m² | - |
| 1777203027 | 13.33° C | 45% | 1017.4 hPa | 0 mm | - | 110 W/m² | - |
| 1777202418 | 13.33° C | 45% | 1017.5 hPa | 0 mm | - | 115 W/m² | - |
| 1777201826 | 12.78° C | 44% | 1017.5 hPa | 0 mm | - | 146 W/m² | - |
| 1777201218 | 12.22° C | 45% | 1017.7 hPa | 0 mm | - | 360 W/m² | - |
| 1777200626 | 12.22° C | 46% | 1017.8 hPa | 0 mm | - | 363 W/m² | - |
| 1777200018 | 11.67° C | 48% | 1017.8 hPa | 0 mm | - | 359 W/m² | - |
| 1777199426 | 11.11° C | 48% | 1017.5 hPa | 0 mm | - | 349 W/m² | - |
| 1777198818 | 10.56° C | 52% | 1017.7 hPa | 0 mm | - | 341 W/m² | - |
| 1777198226 | 10.56° C | 52% | 1017.7 hPa | 0 mm | - | 230 W/m² | - |
| 1777197618 | 10° C | 53% | 1017.8 hPa | 0 mm | - | 116 W/m² | - |
| 1777197026 | 10° C | 52% | 1017.8 hPa | 0 mm | - | 110 W/m² | - |
| 1777196418 | 10° C | 57% | 1018 hPa | 0 mm | - | 97 W/m² | - |
| 1777195826 | 10° C | 58% | 1018.1 hPa | 0 mm | - | 77 W/m² | - |
| 1777195218 | 10° C | 58% | 1018.3 hPa | 0 mm | - | 132 W/m² | - |
| 1777194626 | 9.44° C | 59% | 1018.3 hPa | 0 mm | - | 151 W/m² | - |
| 1777194018 | 8.89° C | 63% | 1018.4 hPa | 0 mm | - | 130 W/m² | - |
| 1777193426 | 8.89° C | 62% | 1018.3 hPa | 0 mm | - | 61 W/m² | - |
| 1777192818 | 8.33° C | 63% | 1018.3 hPa | 0 mm | - | 64 W/m² | - |
| 1777192226 | 8.33° C | 62% | 1018.2 hPa | 0 mm | - | 89 W/m² | - |
| 1777191618 | 8.33° C | 63% | 1018.1 hPa | 0 mm | - | 42 W/m² | - |
| 1777191026 | 7.78° C | 64% | 1018.5 hPa | 0 mm | - | 47 W/m² | - |
| 1777190418 | 7.78° C | 65% | 1018.4 hPa | 0 mm | - | 41 W/m² | - |
| 1777189826 | 7.78° C | 65% | 1018.5 hPa | 0 mm | - | 42 W/m² | - |
* Rain latest hour (hover to see other rain measurements)
** Current wind speed in m/s (hover to see current wind gust speed)